• In Russia
  • List of Countries
  • For 7 days
  • Water Temperature
  • Satellite Maps
  • Weather Map
  • Weather Widgets
  • user-avatar
    Login

    Hourly Weather Artashat

    Today, 24 January, Wednesday

    Time Temperature Precipitation Wind Pressure Humidity
    00:00 -3°C° 0 mm 1 mps 595 mmHg 57%
    01:00 -3°C° 0 mm 1 mps 595 mmHg 59%
    02:00 -3°C° 0 mm 1 mps 595 mmHg 60%
    03:00 -4°C° 0 mm 1 mps 595 mmHg 62%
    04:00 -4°C° 0 mm 1 mps 596 mmHg 64%
    05:00 -4°C° 0 mm 1 mps 596 mmHg 65%
    06:00 -4°C° 0 mm 1 mps 596 mmHg 67%
    07:00 -4°C° 0 mm 1 mps 596 mmHg 66%
    08:00 -3°C° 0 mm 1 mps 597 mmHg 64%
    09:00 -2°C° 0 mm 1 mps 597 mmHg 63%
    10:00 -2°C° 0 mm 1 mps 598 mmHg 62%
    11:00 -1°C° 0 mm 1 mps 598 mmHg 60%
    12:00 0°C° 0 mm 1 mps 598 mmHg 58%
    13:00 0°C° 0 mm 1 mps 598 mmHg 58%
    14:00 0°C° 0 mm 1 mps 598 mmHg 58%
    15:00 +1°C° 0 mm 1 mps 598 mmHg 58%
    16:00 0°C° 0 mm 1 mps 598 mmHg 61%
    17:00 -1°C° 0 mm 1 mps 598 mmHg 63%
    18:00 -2°C° 0 mm 1 mps 598 mmHg 65%
    19:00 -2°C° 0.1 mm 1 mps 598 mmHg 66%
    20:00 -2°C° 0.1 mm 1 mps 598 mmHg 67%
    21:00 -2°C° 0.1 mm 1 mps 598 mmHg 68%
    22:00 -2°C° 0.1 mm 1 mps 598 mmHg 69%
    23:00 -3°C° 0.1 mm 1 mps 598 mmHg 70%

    Tomorrow, 25 January, Thursday

    Time Temperature Precipitation Wind Pressure Humidity
    00:00 -3°C° 0.1 mm 1 mps 598 mmHg 71%
    01:00 -3°C° 0.1 mm 1 mps 598 mmHg 72%
    02:00 -3°C° 0.1 mm 1 mps 598 mmHg 73%
    03:00 -4°C° 0.1 mm 1 mps 598 mmHg 74%
    04:00 -4°C° 0.1 mm 1 mps 598 mmHg 75%
    05:00 -4°C° 0.1 mm 1 mps 598 mmHg 75%
    06:00 -4°C° 0.1 mm 1 mps 598 mmHg 76%
    07:00 -4°C° 0 mm 1 mps 598 mmHg 74%
    08:00 -3°C° 0 mm 1 mps 599 mmHg 73%
    09:00 -2°C° 0 mm 1 mps 599 mmHg 71%
    10:00 -2°C° 0 mm 1 mps 599 mmHg 70%
    11:00 -1°C° 0 mm 1 mps 599 mmHg 69%
    12:00 -2°C° 0 mm 2 mps 599 mmHg 68%
    13:00 -2°C° 0.1 mm 2 mps 599 mmHg 68%
    14:00 -2°C° 0.1 mm 2 mps 599 mmHg 68%
    15:00 -2°C° 0.1 mm 2 mps 598 mmHg 68%
    16:00 0°C° 0 mm 1 mps 598 mmHg 70%
    17:00 -1°C° 0 mm 1 mps 598 mmHg 73%
    18:00 -2°C° 0 mm 1 mps 598 mmHg 75%
    19:00 -2°C° 0 mm 1 mps 598 mmHg 76%
    20:00 -2°C° 0 mm 1 mps 598 mmHg 76%
    21:00 -2°C° 0 mm 1 mps 598 mmHg 77%
    22:00 -2°C° 0 mm 1 mps 598 mmHg 77%
    23:00 -3°C° 0 mm 1 mps 598 mmHg 77%

    Day after tomorrow, 26 January, Friday

    Time Temperature Precipitation Wind Pressure Humidity
    00:00 -3°C° 0 mm 1 mps 598 mmHg 78%
    01:00 -3°C° 0 mm 1 mps 598 mmHg 78%
    02:00 -3°C° 0 mm 1 mps 598 mmHg 78%
    03:00 -3°C° 0 mm 1 mps 598 mmHg 79%
    04:00 -3°C° 0.1 mm 1 mps 598 mmHg 78%
    05:00 -3°C° 0.1 mm 1 mps 597 mmHg 78%
    06:00 -3°C° 0.1 mm 1 mps 597 mmHg 78%
    07:00 -3°C° 0.1 mm 1 mps 597 mmHg 77%
    08:00 -3°C° 0.1 mm 1 mps 597 mmHg 75%
    09:00 -2°C° 0.1 mm 1 mps 597 mmHg 74%
    10:00 -4°C° 0.2 mm 2 mps 597 mmHg 73%
    11:00 -3°C° 0.2 mm 2 mps 597 mmHg 71%
    12:00 -3°C° 0.2 mm 2 mps 597 mmHg 70%
    13:00 -3°C° 0.1 mm 2 mps 597 mmHg 70%
    14:00 -3°C° 0.1 mm 2 mps 597 mmHg 70%
    15:00 -3°C° 0.1 mm 2 mps 597 mmHg 70%
    16:00 -3°C° 0.1 mm 2 mps 597 mmHg 73%
    17:00 -2°C° 0.1 mm 1 mps 597 mmHg 76%
    18:00 -2°C° 0.1 mm 1 mps 597 mmHg 79%
    19:00 -3°C° 0.2 mm 1 mps 597 mmHg 80%
    20:00 -3°C° 0.2 mm 1 mps 597 mmHg 80%
    21:00 -3°C° 0.2 mm 1 mps 598 mmHg 81%
    22:00 -3°C° 0.3 mm 1 mps 598 mmHg 82%
    23:00 -3°C° 0.3 mm 1 mps 598 mmHg 82%

    27 January, Saturday

    Time Temperature Precipitation Wind Pressure Humidity
    00:00 -3°C° 0.3 mm 1 mps 598 mmHg 83%
    01:00 -4°C° 0.3 mm 1 mps 597 mmHg 83%
    02:00 -4°C° 0.3 mm 1 mps 597 mmHg 84%
    03:00 -4°C° 0.3 mm 1 mps 597 mmHg 84%
    04:00 -4°C° 0.1 mm 1 mps 597 mmHg 84%
    05:00 -4°C° 0.1 mm 1 mps 597 mmHg 83%
    06:00 -7°C° 0.1 mm 2 mps 597 mmHg 83%
    07:00 -6°C° 0.1 mm 2 mps 598 mmHg 81%
    08:00 -6°C° 0.1 mm 2 mps 598 mmHg 78%
    09:00 -5°C° 0.1 mm 2 mps 599 mmHg 76%
    10:00 -5°C° 0 mm 2 mps 599 mmHg 73%
    11:00 -4°C° 0 mm 2 mps 599 mmHg 70%
    12:00 -3°C° 0 mm 2 mps 599 mmHg 68%
    13:00 -3°C° 0 mm 2 mps 599 mmHg 66%
    14:00 -3°C° 0 mm 2 mps 599 mmHg 65%
    15:00 -3°C° 0 mm 2 mps 600 mmHg 64%
    16:00 -4°C° 0 mm 2 mps 600 mmHg 66%
    17:00 -5°C° 0 mm 2 mps 600 mmHg 68%
    18:00 -6°C° 0 mm 2 mps 600 mmHg 70%
    19:00 -6°C° 0 mm 2 mps 600 mmHg 71%
    20:00 -6°C° 0 mm 1 mps 601 mmHg 72%
    21:00 -6°C° 0 mm 1 mps 601 mmHg 72%
    22:00 -7°C° 0 mm 1 mps 601 mmHg 73%
    23:00 -7°C° 0 mm 1 mps 601 mmHg 74%

    28 January, Sunday

    Time Temperature Precipitation Wind Pressure Humidity
    00:00 -7°C° 0 mm 1 mps 602 mmHg 74%
    01:00 -7°C° 0 mm 1 mps 602 mmHg 75%
    02:00 -8°C° 0 mm 1 mps 602 mmHg 75%
    03:00 -8°C° 0 mm 1 mps 602 mmHg 75%
    04:00 -8°C° 0 mm 1 mps 602 mmHg 75%
    05:00 -9°C° 0 mm 1 mps 602 mmHg 75%
    06:00 -9°C° 0 mm 1 mps 602 mmHg 75%
    07:00 -8°C° 0 mm 1 mps 603 mmHg 72%
    08:00 -7°C° 0 mm 1 mps 604 mmHg 70%
    09:00 -7°C° 0 mm 1 mps 604 mmHg 67%
    10:00 -6°C° 0 mm 1 mps 604 mmHg 65%
    11:00 -4°C° 0 mm 1 mps 604 mmHg 63%
    12:00 -3°C° 0 mm 1 mps 604 mmHg 60%
    13:00 -3°C° 0 mm 1 mps 604 mmHg 60%
    14:00 -2°C° 0 mm 1 mps 604 mmHg 60%
    15:00 -2°C° 0 mm 1 mps 604 mmHg 59%
    16:00 -3°C° 0 mm 1 mps 604 mmHg 62%
    17:00 -6°C° 0 mm 1 mps 604 mmHg 64%
    18:00 -7°C° 0 mm 1 mps 603 mmHg 67%
    19:00 -7°C° 0 mm 1 mps 603 mmHg 67%
    20:00 -8°C° 0 mm 1 mps 604 mmHg 67%
    21:00 -8°C° 0 mm 1 mps 604 mmHg 67%
    22:00 -8°C° 0 mm 1 mps 604 mmHg 67%
    23:00 -9°C° 0 mm 1 mps 603 mmHg 66%

    29 January, Monday

    Time Temperature Precipitation Wind Pressure Humidity
    00:00 -9°C° 0 mm 1 mps 603 mmHg 66%
    01:00 -9°C° 0 mm 1 mps 603 mmHg 66%
    02:00 -9°C° 0 mm 1 mps 603 mmHg 66%
    03:00 -10°C° 0 mm 1 mps 603 mmHg 67%
    04:00 -10°C° 0 mm 1 mps 602 mmHg 67%
    05:00 -10°C° 0 mm 1 mps 602 mmHg 67%
    06:00 -10°C° 0 mm 1 mps 602 mmHg 67%
    07:00 -9°C° 0 mm 1 mps 603 mmHg 65%
    08:00 -9°C° 0 mm 1 mps 603 mmHg 64%
    09:00 -8°C° 0 mm 1 mps 604 mmHg 62%
    10:00 -7°C° 0 mm 1 mps 604 mmHg 60%
    11:00 -6°C° 0 mm 1 mps 604 mmHg 59%
    12:00 -4°C° 0 mm 1 mps 604 mmHg 57%
    13:00 -5°C° 0 mm 2 mps 604 mmHg 57%
    14:00 -5°C° 0 mm 2 mps 603 mmHg 57%
    15:00 -5°C° 0 mm 2 mps 603 mmHg 57%
    16:00 -6°C° 0 mm 2 mps 603 mmHg 59%
    17:00 -7°C° 0 mm 2 mps 603 mmHg 61%
    18:00 -9°C° 0 mm 2 mps 602 mmHg 63%
    19:00 -9°C° 0 mm 2 mps 603 mmHg 64%
    20:00 -10°C° 0 mm 2 mps 603 mmHg 64%
    21:00 -10°C° 0 mm 2 mps 603 mmHg 64%
    22:00 -10°C° 0 mm 2 mps 603 mmHg 64%
    23:00 -10°C° 0 mm 2 mps 603 mmHg 64%
    Show more